Lid_Strength_Index
8 11 13 11 11 11 11 12 14 13 12 14 15 15 14 13 12 13 13 13 13 13 13 13 13 12 12 12 11 10 10 6 5 6 8 9 10 10 9 9 9 9 9 9
11 13 10 10 10 11 12 13 14 11 11 13 15 15 14 14 13 13 13 13 13 13 14 13 13 13 13 13 12 11 11 11 8 8 8 9 10 10 10 10 10 10 10 9
13 11 8 9 11 12 12 14 13 13 13 13 14 15 15 14 14 13 13 13 13 14 14 14 14 14 13 14 13 12 11 12 11 10 10 10 10 10 11 11 11 11 11 11
11 9 10 11 12 11 15 11 11 12 14 17 12 19 14 15 15 14 14 14 14 15 14 14 14 14 14 14 13 12 12 12 11 10 10 11 12 13 13 13 13 13 13 13
12 11 11 12 11 10 12 10 11 12 14 15 16 17 14 15 16 15 14 14 14 14 14 15 15 14 14 14 13 13 13 13 12 13 12 13 13 14 14 14 14 13 13 13
11 9 9 10 9 9 9 11 12 12 14 19 16 16 16 17 15 15 14 14 14 14 14 14 14 13 14 13 13 14 14 14 14 14 14 14 14 14 15 15 14 14 13 13
12 12 10 8 11 9 10 13 19 20 20 20 14 16 15 13 12 12 13 13 13 14 14 14 14 14 14 14 14 14 14 15 15 15 15 15 15 15 15 15 15 14 14 13
16 17 11 9 11 13 12 13 18 22 22 19 15 18 15 15 14 12 12 13 14 14 14 14 14 14 15 15 15 15 15 15 15 15 15 15 15 15 15 15 14 14 13 13
16 16 11 10 9 10 13 15 11 16 18 19 17 14 15 15 14 13 14 14 14 14 14 15 15 15 15 15 15 15 15 15 15 15 15 15 15 15 15 15 14 14 13 13
12 16 12 11 10 10 12 9 16 15 21 22 18 17 16 17 15 14 14 14 14 14 14 14 14 15 14 15 15 15 15 15 15 15 15 16 16 15 15 15 15 15 14 13
10 12 13 12 13 14 13 14 14 14 15 20 21 17 14 14 13 13 13 13 14 14 14 15 15 14 15 15 15 15 15 15 15 15 15 15 16 16 16 16 15 15 14 14
10 12 16 14 12 12 12 13 13 17 18 16 17 17 14 14 13 12 13 13 14 14 15 15 15 15 16 16 16 15 15 15 15 15 15 16 16 15 15 16 16 15 15 14
10 14 17 16 13 11 14 13 12 13 14 17 18 16 14 14 13 12 14 14 14 14 15 15 15 16 16 16 16 16 16 15 15 16 16 17 17 16 16 16 15 15 15 15
8 12 15 17 16 14 15 14 12 13 17 16 16 15 16 15 14 13 13 13 14 14 15 15 15 15 15 15 16 16 15 15 15 16 16 16 16 16 16 15 15 15 15 15
10 18 13 13 13 13 13 13 13 14 14 16 14 14 13 14 14 13 13 13 14 15 15 15 15 15 15 15 16 16 16 15 16 16 16 16 16 16 15 15 15 15 15 15
10 15 14 14 13 13 14 13 13 13 13 14 15 15 14 14 14 14 14 14 14 14 14 14 14 14 15 15 15 15 15 15 15 15 15 16 16 15 15 15 15 15 15 15
13 15 15 17 14 15 17 14 13 14 14 14 16 14 15 15 15 14 14 14 14 13 13 14 13 14 14 14 13 14 15 15 15 15 15 15 15 15 15 15 15 15 16 16
14 16 19 19 16 20 16 16 16 14 13 14 14 14 15 15 15 14 13 13 13 13 13 14 14 14 13 13 14 14 15 15 15 16 15 15 16 16 15 15 16 16 17 17
11 14 19 19 18 19 18 16 15 14 14 13 13 14 15 15 15 16 14 13 12 13 13 13 12 13 13 14 14 15 16 16 16 16 16 16 16 16 16 16 17 17 17 17
14 15 16 22 21 23 17 15 15 15 17 13 12 14 15 14 15 14 14 13 13 13 13 14 14 14 14 15 15 15 16 16 16 16 16 16 16 16 16 17 17 17 18 18
20 18 21 26 24 20 16 15 15 18 15 14 13 14 15 14 13 13 13 13 13 13 14 14 14 14 14 15 16 16 16 16 16 16 16 16 17 17 17 17 18 18 19 19
19 21 26 31 27 22 16 16 15 13 15 14 14 13 14 14 14 14 13 13 13 14 13 14 14 14 15 15 16 16 16 16 16 16 17 18 19 18 18 20 20 21 21 22
22 19 21 19 18 14 15 14 14 14 14 14 14 13 13 13 14 14 14 13 13 13 13 14 14 15 15 16 16 16 16 16 17 19 19 20 20 19 19 21 21 22 22 23
19 17 19 18 16 16 14 14 14 13 14 13 13 13 13 13 13 13 13 13 14 14 14 15 16 17 15 17 16 16 17 18 20 20 20 20 21 21 22 21 21 22 23 23
18 17 18 19 16 15 14 14 13 13 13 13 14 13 13 13 14 14 14 14 14 14 15 16 16 16 16 18 18 19 19 20 19 20 20 21 21 22 22 22 22 22 21 21
17 17 18 19 15 15 15 15 13 13 13 13 13 14 14 14 14 14 14 14 15 15 16 18 18 19 18 20 19 20 21 20 20 21 21 21 22 23 22 23 23 19 18 17